[[{"header":{"parameterUnit":"m.s-1","parameterCategory":1,"la1":30.2991,"la2":30.254,"lo1":-89.0895,"lo2":-89.0444,"dy":0.0017,"dx":0.0017,"nx":28,"ny":28,"refTime":"2023-09-07T21:00:00:Z","depth":0,"parameterNumber":2,"parameterNumberName":"U-component_of_WINDS"},"data":[0,0,0,0,0,0,0,0,0,0,0,0,0,0,0,0,0,0,0,0,0,0,0,0,0,0,0,0,0,0,0,0,0,0,0,0,0,0,0,0,0,0,0,0,0,0,0,0,0,0,0,0,0,0,0,0,0,0,0.2101,0.2101,0,0.212,0.212,0.212,0.21,0.2099,0.2098,0.2098,0.212,0.2121,0.2123,0,0,0,0,0,0,0,0,0,0,0,0,0,0.2051,0.2052,0.2101,0.2101,0.2101,0.212,0.212,0.212,0.21,0.2099,0.2098,0.2097,0.212,0.2121,0.2123,0,0,0,0,0,0,0,0,0,0,0,0,0,0.2072,0.2053,0.2101,0.2093,0.2093,0.212,0.212,0.2121,0.21,0.2099,0.2098,0.2097,0.2119,0.2121,0.2123,0.2159,0,0,0.2129,0.213,0,0,0,0,0,0,0,0,0.2071,0.2074,0.2094,0.2094,0.2093,0.2106,0.2111,0.2134,0.2101,0.2097,0.2098,0.2096,0.2117,0.2119,0.2125,0.216,0.2161,0.2129,0.2131,0.2131,0.2132,0,0,0,0,0,0,0,0.2069,0.2073,0.2108,0.2094,0.2094,0.2091,0.2092,0.2115,0.2114,0.2098,0.2096,0.2099,0.2116,0.2123,0.2125,0.2162,0.2129,0.2131,0.2132,0.2133,0.2234,0.2235,0,0,0,0,0,0,0.2068,0.2072,0.2108,0.2109,0.2079,0.2092,0.2094,0.2103,0.2113,0.2114,0.21,0.2098,0.212,0.2123,0.2126,0.2173,0.2131,0.2133,0.2135,0.2232,0.2234,0.2236,0,0,0,0,0,0,0.2067,0.2072,0.2107,0.209,0.2094,0.2095,0.2105,0.2104,0.2111,0.2115,0.2115,0.2107,0.212,0.2123,0.2152,0.2174,0.2134,0.2136,0.2231,0.2233,0.2235,0.2265,0,0,0,0,0,0,0.2066,0.2071,0.2084,0.209,0.2095,0.2131,0.2106,0.2106,0.2114,0.2112,0.2121,0.2122,0.2119,0.215,0.2154,0.2176,0.2138,0.2229,0.2232,0.2234,0.2263,0.2268,0.2273,0,0,0,0,0,0.2064,0.2091,0.2084,0.2089,0.211,0.2132,0.2135,0.213,0.2116,0.213,0.2133,0.2122,0.217,0.2153,0.2158,0.218,0.2227,0.2231,0.2234,0.226,0.2267,0.2273,0,0,0,0,0,0,0.2086,0.2091,0.2084,0.2113,0.2123,0.2129,0.2145,0.2137,0.2151,0.2148,0.2143,0.2145,0.2177,0.2181,0.2161,0.2219,0.2197,0.2201,0.2215,0.2222,0.2227,0.2226,0.2139,0,0,0,0,0,0.2095,0.2111,0.2115,0.214,0.2145,0.2145,0.2154,0.215,0.216,0.2163,0.2168,0.2179,0.2198,0.2209,0.2226,0.2263,0.2267,0.2281,0.2287,0.2291,0.2296,0.2321,0.2328,0.2247,0.2247,0.2247,0,0,0.2112,0.2117,0.2127,0.2145,0.2151,0.2171,0.2148,0.2168,0.2183,0.2167,0.2195,0.22,0.2212,0.2246,0.2262,0.2251,0.2319,0.2295,0.2299,0.2301,0.2325,0.2333,0.2339,0.2249,0.2248,0.2248,0,0,0.2154,0.2157,0.2181,0.2189,0.2199,0.22,0.2206,0.2214,0.2216,0.2245,0.2234,0.2253,0.2283,0.2294,0.2303,0.2353,0.2345,0.2359,0.2388,0.2412,0.2419,0.2425,0.2447,0.2454,0.2363,0.2363,0.2363,0,0.2174,0.2201,0.2194,0.2217,0.2227,0.2213,0.2239,0.2247,0.2263,0.2272,0.2259,0.23,0.2307,0.2346,0.2359,0.2365,0.2375,0.2358,0.2418,0.2424,0.2429,0.245,0.2458,0.2365,0.2365,0.2365,0.2364,0,0.2228,0.2247,0.2265,0.2281,0.2293,0.2317,0.2317,0.233,0.2326,0.2329,0.2361,0.2369,0.2389,0.2398,0.2393,0.2438,0.2431,0.2418,0.2397,0.2439,0.2459,0.2467,0.2368,0.2367,0.2367,0.2366,0,0,0.2282,0.2297,0.2304,0.2314,0.2326,0.2342,0.2367,0.2387,0.2401,0.2413,0.2436,0.2464,0.2454,0.2465,0.2462,0.2483,0.2528,0.2468,0.2468,0.2482,0.2583,0.2595,0.2604,0.2522,0.2523,0.2524,0.2583,0,0.2327,0.237,0.2367,0.2408,0.2428,0.2418,0.244,0.2452,0.2456,0.2476,0.248,0.2502,0.2484,0.2491,0.2511,0.2518,0.2549,0.2513,0.2547,0.2548,0.2547,0.2614,0.2625,0.268,0.2591,0.2592,0.2593,0,0.2384,0.24,0.2444,0.2457,0.2466,0.2486,0.2506,0.2524,0.2539,0.2541,0.2555,0.255,0.2579,0.2555,0.2598,0.2574,0.2588,0.2594,0.2596,0.2601,0.2575,0.2624,0.2697,0.2707,0.2604,0.2603,0.2603,0,0.2425,0.2456,0.2488,0.2496,0.2511,0.2527,0.2534,0.2548,0.2561,0.258,0.259,0.2611,0.2624,0.2642,0.2644,0.2626,0.2689,0.2664,0.2694,0.2694,0.2709,0.2709,0.2789,0.2713,0.2713,0.2713,0.2713,0,0.2476,0.2504,0.2507,0.2526,0.2559,0.2556,0.2589,0.2596,0.2609,0.2632,0.2623,0.2646,0.2646,0.267,0.2672,0.2709,0.2714,0.2719,0.272,0.2721,0.2721,0.2732,0.273,0.2715,0.2714,0.2714,0.2714,0,0.2527,0.2529,0.2563,0.2576,0.2581,0.2605,0.2617,0.2638,0.2642,0.2671,0.2678,0.2686,0.2714,0.2717,0.2749,0.2751,0.2798,0.2793,0.2793,0.2793,0.2825,0.2823,0.2917,0.2931,0.2843,0.2844,0.2844,0,0.2561,0.2583,0.2599,0.2614,0.2623,0.2646,0.266,0.266,0.2676,0.2697,0.2717,0.2744,0.2765,0.2811,0.2821,0.2847,0.2845,0.2876,0.2849,0.2852,0.2851,0.2851,0.2855,0.2882,0.2883,0.2884,0.2885,0,0.2623,0.2624,0.2644,0.2667,0.2685,0.2703,0.2719,0.2732,0.2735,0.2754,0.2783,0.28,0.2835,0.2863,0.289,0.2901,0.2895,0.2893,0.2902,0.2906,0.2906,0.2911,0.2811,0.2891,0.2891,0.289,0.289,0.2889,0.2668,0.2689,0.2705,0.273,0.2743,0.276,0.2781,0.2789,0.2812,0.2841,0.2839,0.2872,0.2892,0.2927,0.294,0.2968,0.2958,0.297,0.2973,0.2977,0.2983,0.29,0.2972,0.2972,0.2972,0.2971,0.2971,0,0.2733,0.2743,0.2766,0.2791,0.2812,0.2803,0.2823,0.2842,0.2871,0.2888,0.2911,0.2947,0.2976,0.2989,0.3019,0.3039,0.3037,0.3047,0.3047,0.3051,0.2987,0.2978,0.3048,0.3048,0.3048,0.3048,0.3048,0.3048,0.2769,0.2805,0.2809,0.2853,0.2863,0.2895,0.2908,0.2925,0.294,0.298,0.3004,0.3013,0.303,0.3062,0.309,0.3093,0.3106,0.3118,0.3121,0.3062,0.3054,0.3047,0.3039,0.312,0.312,0.3183,0.3183,0.3184]},{"header":{"parameterUnit":"m.s-1","parameterCategory":1,"la1":30.2991,"la2":30.254,"lo1":-89.0895,"lo2":-89.0444,"dy":0.0017,"dx":0.0017,"nx":28,"ny":28,"refTime":"2023-09-07T21:00:00:Z","depth":0,"parameterNumber":3,"parameterNumberName":"V-component_of_WINDS"},"data":[0,0,0,0,0,0,0,0,0,0,0,0,0,0,0,0,0,0,0,0,0,0,0,0,0,0,0,0,0,0,0,0,0,0,0,0,0,0,0,0,0,0,0,0,0,0,0,0,0,0,0,0,0,0,0,0,0,0,-1.5092,-1.5093,0,-1.5192,-1.5193,-1.5194,-1.523,-1.523,-1.5229,-1.5229,-1.5324,-1.5327,-1.533,0,0,0,0,0,0,0,0,0,0,0,0,0,-1.4927,-1.493,-1.5092,-1.5093,-1.5095,-1.5192,-1.5193,-1.5194,-1.523,-1.523,-1.5229,-1.5229,-1.5323,-1.5327,-1.533,0,0,0,0,0,0,0,0,0,0,0,0,0,-1.501,-1.4931,-1.5092,-1.5124,-1.5128,-1.5191,-1.5193,-1.5195,-1.523,-1.523,-1.5229,-1.5229,-1.5322,-1.5326,-1.533,-1.5366,0,0,-1.5343,-1.5345,0,0,0,0,0,0,0,0,-1.5005,-1.5016,-1.5118,-1.5122,-1.5127,-1.5198,-1.517,-1.5252,-1.523,-1.5191,-1.5229,-1.5228,-1.5282,-1.529,-1.5309,-1.5371,-1.5375,-1.5344,-1.5346,-1.5348,-1.5349,0,0,0,0,0,0,0,-1.4999,-1.5012,-1.5131,-1.512,-1.5125,-1.5132,-1.5143,-1.5185,-1.5238,-1.5195,-1.5197,-1.5209,-1.5284,-1.5305,-1.5312,-1.5376,-1.5344,-1.5348,-1.535,-1.5352,-1.5472,-1.5473,0,0,0,0,0,0,-1.4989,-1.5007,-1.5128,-1.5134,-1.5064,-1.5135,-1.5148,-1.5176,-1.5238,-1.5247,-1.5209,-1.521,-1.5298,-1.5307,-1.5315,-1.5362,-1.5348,-1.5352,-1.5355,-1.5472,-1.5473,-1.5473,0,0,0,0,0,0,-1.4985,-1.5,-1.5124,-1.5071,-1.5088,-1.5139,-1.5169,-1.5178,-1.5199,-1.5249,-1.5258,-1.5221,-1.5298,-1.5309,-1.5354,-1.5365,-1.5354,-1.5358,-1.5471,-1.5472,-1.5473,-1.5454,0,0,0,0,0,0,-1.4981,-1.4998,-1.5014,-1.5072,-1.5091,-1.5163,-1.517,-1.518,-1.5207,-1.5209,-1.5263,-1.5271,-1.5298,-1.5347,-1.5358,-1.5371,-1.5361,-1.547,-1.5472,-1.5473,-1.5454,-1.5455,-1.5455,0,0,0,0,0,-1.4975,-1.5003,-1.5014,-1.5029,-1.5112,-1.5164,-1.5174,-1.5207,-1.5207,-1.5223,-1.5255,-1.5269,-1.5362,-1.5352,-1.5364,-1.5378,-1.547,-1.5471,-1.5473,-1.5454,-1.5455,-1.5455,0,0,0,0,0,0,-1.4942,-1.5011,-1.5024,-1.5073,-1.5113,-1.517,-1.519,-1.5207,-1.5245,-1.5246,-1.5283,-1.5295,-1.5336,-1.5362,-1.5349,-1.5416,-1.5417,-1.5421,-1.5398,-1.5399,-1.54,-1.5392,-1.5365,0,0,0,0,0,-1.4942,-1.498,-1.5037,-1.5074,-1.5094,-1.5138,-1.5162,-1.5185,-1.5226,-1.5242,-1.5278,-1.5316,-1.5354,-1.5378,-1.5416,-1.5458,-1.547,-1.5474,-1.5474,-1.5474,-1.5477,-1.5501,-1.5504,-1.5478,-1.5478,-1.5478,0,0,-1.4939,-1.4981,-1.5003,-1.5069,-1.5102,-1.514,-1.5152,-1.5191,-1.5219,-1.5248,-1.5293,-1.532,-1.5365,-1.5409,-1.543,-1.5431,-1.5487,-1.5476,-1.5476,-1.5479,-1.5503,-1.5505,-1.5507,-1.5479,-1.5479,-1.5479,0,0,-1.4954,-1.499,-1.5025,-1.5059,-1.511,-1.514,-1.5148,-1.5203,-1.5223,-1.527,-1.5292,-1.5324,-1.5389,-1.542,-1.5445,-1.5472,-1.5486,-1.5483,-1.5485,-1.5508,-1.551,-1.5511,-1.5521,-1.5524,-1.5485,-1.5485,-1.5485,0,-1.4943,-1.5003,-1.504,-1.5079,-1.5107,-1.5138,-1.5172,-1.5202,-1.5262,-1.528,-1.5281,-1.5364,-1.5396,-1.5447,-1.5454,-1.5473,-1.5482,-1.5477,-1.5507,-1.5509,-1.5511,-1.5521,-1.5524,-1.5485,-1.5485,-1.5485,-1.5485,0,-1.4988,-1.5029,-1.5051,-1.5111,-1.5141,-1.5177,-1.5218,-1.5244,-1.5264,-1.5293,-1.5339,-1.5379,-1.5425,-1.5439,-1.5458,-1.5493,-1.5493,-1.55,-1.5501,-1.5512,-1.5522,-1.5526,-1.5484,-1.5484,-1.5484,-1.5484,0,0,-1.4985,-1.5066,-1.5073,-1.5101,-1.516,-1.5191,-1.5228,-1.5276,-1.5297,-1.5337,-1.5369,-1.5423,-1.543,-1.5458,-1.548,-1.55,-1.5519,-1.5505,-1.5507,-1.5506,-1.556,-1.5554,-1.5558,-1.5529,-1.553,-1.5531,-1.5556,0,-1.5007,-1.5078,-1.5113,-1.5167,-1.5205,-1.5234,-1.5267,-1.5305,-1.5333,-1.5367,-1.5397,-1.5435,-1.5442,-1.5459,-1.5481,-1.5512,-1.553,-1.5511,-1.5557,-1.5558,-1.5545,-1.5563,-1.5557,-1.5579,-1.556,-1.5561,-1.5561,0,-1.5043,-1.5085,-1.5144,-1.52,-1.5217,-1.5245,-1.5292,-1.5325,-1.5369,-1.5388,-1.5419,-1.5441,-1.5479,-1.5478,-1.5531,-1.5517,-1.5537,-1.5556,-1.5557,-1.5562,-1.556,-1.5568,-1.5587,-1.559,-1.5567,-1.5567,-1.5566,0,-1.5034,-1.5106,-1.5151,-1.5174,-1.5239,-1.5258,-1.5286,-1.533,-1.5356,-1.5396,-1.5414,-1.5457,-1.548,-1.5512,-1.5544,-1.554,-1.5593,-1.5595,-1.5608,-1.5608,-1.5618,-1.5617,-1.564,-1.5632,-1.5632,-1.5632,-1.5632,0,-1.5055,-1.509,-1.5148,-1.5176,-1.5215,-1.5254,-1.5291,-1.5321,-1.536,-1.5392,-1.5419,-1.5448,-1.5489,-1.5523,-1.5548,-1.5588,-1.5598,-1.5613,-1.5619,-1.5611,-1.5609,-1.5624,-1.5623,-1.5633,-1.5632,-1.5632,-1.5632,0,-1.5052,-1.5093,-1.5144,-1.5202,-1.5218,-1.5244,-1.5293,-1.532,-1.535,-1.539,-1.5402,-1.5447,-1.5489,-1.5525,-1.5578,-1.5595,-1.5636,-1.5643,-1.5622,-1.5625,-1.5637,-1.5635,-1.5671,-1.5677,-1.5664,-1.5664,-1.5664,0,-1.5063,-1.5091,-1.5154,-1.5179,-1.5207,-1.5246,-1.5274,-1.5313,-1.534,-1.5393,-1.5413,-1.5457,-1.5494,-1.5558,-1.5594,-1.5635,-1.5644,-1.5654,-1.565,-1.5641,-1.5644,-1.5642,-1.5644,-1.5653,-1.5653,-1.5653,-1.5653,0,-1.5078,-1.5097,-1.5138,-1.5186,-1.5219,-1.5258,-1.5297,-1.5315,-1.5361,-1.539,-1.5434,-1.5463,-1.5519,-1.5561,-1.5607,-1.5633,-1.565,-1.5654,-1.566,-1.5651,-1.5637,-1.5645,-1.5621,-1.5653,-1.5653,-1.5653,-1.5653,-1.5653,-1.5083,-1.5109,-1.5157,-1.5201,-1.5236,-1.5272,-1.53,-1.5334,-1.5373,-1.5423,-1.5443,-1.5487,-1.553,-1.5593,-1.5619,-1.5653,-1.5656,-1.5664,-1.5666,-1.5667,-1.5665,-1.5632,-1.5661,-1.5662,-1.5662,-1.5662,-1.5662,0,-1.5099,-1.5132,-1.5172,-1.5228,-1.5262,-1.5278,-1.5322,-1.5349,-1.5389,-1.5428,-1.5465,-1.5515,-1.5557,-1.5597,-1.564,-1.566,-1.5669,-1.567,-1.5668,-1.5674,-1.5661,-1.5652,-1.5662,-1.5662,-1.5662,-1.5662,-1.5662,-1.5662,-1.5111,-1.5157,-1.5181,-1.5244,-1.5276,-1.5322,-1.5346,-1.5379,-1.541,-1.5466,-1.5502,-1.5529,-1.5568,-1.5614,-1.5653,-1.5663,-1.5678,-1.5676,-1.5689,-1.5675,-1.5675,-1.5674,-1.5666,-1.5679,-1.5679,-1.57,-1.57,-1.57]}]]